SCP
0 0 0 0 0 0 0 0 0 0 0 0 0 0 0 0 0 0 0 0 0 0 0 0 0 0 0 0 0 0 0 0 0 0 0 0 0 0 0 0 0 0 0
0 0 0 0 0 0 0 0 0 0 0 0 0 0 0 0 0 0 0 0 0 0 0 0 0 0 0 0 0 0 0 0 0 0 0 0 0 0 0 0 0 0 0
0 0 0 0 0 0 0 0 0 0 0 0 0 0 0 0 0 0 0 0 0 0 0 0 0 0 0 0 0 0 0 0 0 0 0 0 0 0 0 0 0 0 0
0 0 0 0 0 0 0 0 0 0 0 0 0 0 0 0 0 0 0 0 0 0 0 0 0 0 0 0 0 0 0 0 0 0 0 0 0 0 0 0 0 0 0
0 0 0 0 0 0 0 0 0 0 0 0 0 0 0 0 0 0 0 0 0 0 0 0 0 0 0 0 0 0 0 0 0 0 0 0 0 0 0 0 0 0 0
0 0 0 0 0 0 0 0 0 0 0 0 0 0 0 0 0 0 0 0 0 0 0 0 0 0 0 0 0 0 0 0 0 0 0 0 0 0 0 0 0 0 0
0 0 0 0 1 0 0 0 0 0 0 0 0 0 0 0 0 0 0 0 0 0 0 0 0 0 0 0 0 0 0 0 0 0 0 0 0 0 0 0 0 0 0
0 0 0 0 1 1 0 0 0 0 0 0 0 0 0 0 0 0 0 0 0 0 0 0 0 0 0 0 0 0 0 0 0 0 0 0 0 0 0 0 0 0 0
0 0 0 0 0 0 0 0 0 0 0 0 0 0 0 0 0 0 0 0 0 0 0 0 0 0 0 0 0 0 0 0 0 0 0 0 0 0 0 0 0 0 0
0 0 0 0 0 0 0 0 0 0 0 0 0 0 0 0 0 0 0 0 0 0 0 0 0 0 0 0 0 0 0 0 0 0 0 0 0 0 0 0 0 0 0
0 0 0 0 0 0 0 0 0 0 0 0 0 0 0 0 0 0 0 0 0 0 0 0 0 0 0 0 0 0 0 0 0 0 0 0 0 0 0 0 0 0 0
0 0 0 0 0 1 1 0 0 0 0 0 0 0 0 0 0 0 0 0 0 0 0 0 0 0 0 0 0 0 0 0 0 0 0 0 0 0 0 0 0 0 0
0 0 0 0 1 1 1 1 0 0 0 0 0 0 0 0 0 0 0 0 0 0 0 0 0 0 0 0 0 0 0 0 0 0 0 0 0 0 0 0 0 0 0
0 0 0 0 1 1 1 1 0 0 0 0 0 0 0 0 0 0 0 0 0 0 0 0 0 0 0 0 0 0 0 0 0 0 0 0 0 0 0 0 0 0 0
0 0 0 0 1 1 1 1 0 0 0 0 0 0 0 0 0 0 0 0 0 0 0 0 0 0 0 0 0 0 0 0 0 0 0 0 0 0 0 0 0 0 0
0 0 0 0 0 1 1 1 0 0 0 0 0 0 0 0 0 0 0 0 0 0 0 0 0 0 0 0 0 0 0 0 0 0 0 0 0 0 0 0 0 0 0
0 0 0 0 0 1 1 0 0 0 0 0 0 0 0 0 0 0 0 0 0 0 0 0 0 0 0 0 0 0 0 0 0 0 0 0 0 0 0 0 0 0 0
0 0 0 0 0 0 0 0 0 0 0 0 0 0 0 0 0 0 0 0 0 0 0 0 0 0 0 0 0 0 0 0 0 0 0 0 0 0 0 0 0 0 0
0 0 0 0 0 0 0 0 0 0 0 0 0 0 0 0 0 0 0 0 0 0 0 0 0 0 0 0 0 0 0 0 0 0 0 0 0 0 0 0 0 0 0
0 0 0 0 0 0 0 0 0 0 0 0 0 0 0 0 0 0 0 0 0 0 0 0 0 0 0 0 0 0 0 0 0 0 0 0 0 0 0 0 0 0 0
0 0 0 0 0 0 0 0 0 0 0 0 0 0 0 0 0 0 0 0 0 0 0 0 0 0 0 0 0 0 0 0 0 0 0 0 0 0 0 0 0 0 0
0 0 0 0 0 0 0 0 0 0 0 0 0 0 0 0 0 0 0 0 0 0 0 0 0 0 0 0 0 0 0 0 0 0 0 0 0 0 0 0 0 0 0
0 0 0 0 0 0 0 0 0 0 0 0 0 0 0 0 0 0 0 0 0 0 0 0 0 0 0 0 0 0 0 0 0 0 0 0 0 0 0 0 0 0 0
0 0 0 0 0 0 0 0 0 0 0 0 0 0 0 0 0 0 0 0 0 0 0 0 0 0 0 0 0 0 0 0 0 0 0 0 0 0 0 0 0 0 0
0 0 0 0 0 0 0 0 0 0 0 0 0 0 0 0 0 0 0 0 0 0 0 0 0 0 0 0 0 0 0 0 0 0 0 0 0 0 0 0 0 0 0
0 0 0 0 0 0 0 0 0 0 0 0 0 0 0 0 0 0 0 0 0 0 0 0 0 0 0 0 0 0 0 0 0 0 0 0 0 0 0 0 0 0 0
Wind_Speed
5 8 9 9 9 10 10 10 11 11 10 11 11 11 11 11 11 11 10 10 10 10 10 10 10 11 11 12 12 11 11 11 11 11 11 11 11 12 11 10 8 9 12
7 8 10 9 9 10 10 10 11 11 11 11 11 11 11 11 11 10 10 10 10 9 9 10 10 10 11 11 11 11 11 11 10 10 9 10 11 11 11 11 10 9 11
7 9 10 9 9 9 9 9 10 11 11 11 11 10 10 10 10 10 10 9 9 9 9 9 10 10 10 10 10 10 10 10 9 8 6 7 9 10 11 11 10 11 11
7 8 9 9 9 9 9 9 9 10 10 10 11 10 10 10 10 10 9 9 9 9 9 9 9 9 10 10 10 10 9 9 8 4 5 7 7 10 10 10 10 10 10
7 7 8 8 9 9 9 10 9 9 10 10 10 10 9 9 9 9 9 8 8 9 9 9 9 9 9 9 9 9 9 8 6 4 6 6 7 9 9 9 9 9 9
7 7 9 8 8 9 9 9 9 9 9 9 10 9 9 9 9 9 9 8 8 8 8 8 9 9 9 9 8 8 8 6 3 5 5 5 6 8 8 8 8 8 8
6 6 8 8 9 9 8 8 8 9 9 9 9 9 9 8 8 8 8 8 8 8 8 8 9 9 8 8 8 7 7 4 3 5 5 5 6 7 7 7 7 7 7
5 6 7 8 8 9 8 8 8 8 9 9 8 8 8 8 8 8 8 8 8 8 8 8 8 8 7 7 7 7 6 2 3 5 5 6 7 6 6 6 6 6 6
4 5 6 7 7 8 8 8 7 7 8 8 8 7 7 7 8 8 8 8 8 8 7 8 8 8 7 7 7 6 5 2 2 3 4 4 6 5 5 5 5 5 5
4 4 5 6 7 7 8 7 7 6 7 7 7 7 6 7 7 7 7 7 7 7 7 7 7 7 7 6 6 6 4 1 3 3 2 5 5 4 4 4 4 4 4
3 4 4 5 6 7 7 7 7 7 6 7 7 7 7 6 7 6 6 6 7 7 7 7 7 6 6 6 5 5 3 1 2 2 2 5 3 3 4 4 4 3 3
5 5 4 5 5 6 5 6 6 6 7 6 6 7 6 5 4 5 7 6 6 6 6 6 6 6 4 4 4 4 2 2 1 1 3 4 2 2 3 3 3 3 4
6 6 5 5 5 6 5 5 4 4 5 6 7 7 5 4 4 4 4 5 5 5 4 5 5 3 3 2 2 2 1 1 1 1 3 3 2 2 3 3 3 2 3
6 6 6 5 5 6 6 5 5 4 4 4 6 7 5 4 4 4 3 4 4 3 3 3 3 3 3 3 3 3 3 1 1 1 3 3 2 2 2 1 1 2 2
6 7 7 6 6 6 6 5 5 5 5 5 5 6 6 4 5 4 3 3 3 3 3 3 3 4 3 3 2 2 3 2 2 2 2 3 2 1 0 1 1 1 1
7 6 7 8 7 6 6 6 5 5 5 5 5 6 7 5 5 5 4 4 3 3 3 3 4 3 3 3 3 3 3 2 2 2 2 2 2 0 1 0 0 1 1
7 6 7 8 8 8 8 8 6 6 6 6 5 7 7 6 6 5 5 4 4 4 4 4 4 3 3 3 3 3 2 2 3 3 2 2 2 2 0 1 1 1 2
7 7 6 6 8 9 8 8 6 6 7 6 6 6 8 8 7 6 5 5 5 4 4 4 4 4 3 3 3 2 3 2 4 4 3 3 2 2 2 0 1 2 2
7 7 7 7 8 8 8 7 7 6 7 6 6 6 7 8 8 6 5 5 5 5 4 4 4 4 3 3 3 3 3 3 3 4 4 4 3 2 2 2 1 1 2
7 7 6 7 8 8 7 6 6 6 6 6 6 7 8 8 9 7 6 6 6 5 5 5 5 4 3 3 2 2 2 3 3 4 4 4 3 3 3 2 2 2 2
7 7 7 6 7 7 6 7 7 7 6 6 6 8 9 8 9 8 6 6 6 6 6 6 5 5 4 3 2 2 3 3 4 4 4 4 4 4 4 4 3 2 2
8 7 7 7 7 8 7 7 6 6 6 6 5 7 8 9 9 8 8 6 7 5 6 6 6 4 3 3 3 2 3 4 4 4 4 4 4 4 4 4 3 3 2
8 7 7 7 7 8 7 6 5 5 4 5 6 6 8 9 9 8 9 7 7 6 6 7 7 7 5 4 4 3 3 3 2 3 5 5 5 4 3 3 4 3 4
7 6 7 7 7 7 7 8 9 8 7 7 6 6 7 8 9 9 9 8 7 6 7 7 7 6 6 5 4 4 4 2 3 2 4 4 4 4 4 4 4 4 4
6 5 5 6 7 7 7 8 9 8 7 5 6 7 7 7 8 8 8 8 7 6 7 7 7 7 6 6 4 3 4 3 4 3 3 3 4 4 4 4 4 3 4
5 4 5 6 7 7 8 8 9 9 8 8 8 7 6 5 6 8 7 7 7 6 7 7 7 8 7 7 5 4 4 4 4 4 4 4 4 3 4 4 4 4 3
Wind_Direction
161 159 158 155 154 151 146 146 146 142 140 137 135 132 128 125 122 120 118 114 110 107 105 104 102 98 95 92 90 88 87 85 83 82 83 84 86 84 79 75 76 78 72
156 160 156 157 154 154 150 148 147 144 141 138 135 135 133 130 127 124 122 117 114 111 108 105 102 99 97 93 91 88 86 85 82 81 85 90 86 85 82 74 63 72 74
151 153 158 159 155 153 151 147 146 145 145 143 139 137 137 134 132 130 125 120 117 113 109 105 103 101 99 95 92 89 87 85 84 83 92 89 90 86 86 81 76 76 75
152 155 157 155 153 152 150 147 145 145 146 144 142 138 138 137 135 132 125 122 119 116 112 108 104 101 100 98 94 90 88 85 81 89 91 83 86 88 88 85 81 77 75
153 158 148 152 152 149 149 148 147 150 147 143 142 142 140 140 138 134 128 124 121 119 115 110 106 104 102 99 96 93 89 86 84 88 85 84 82 87 87 84 81 78 75
156 160 149 154 151 150 148 149 149 148 148 146 143 142 142 143 143 138 132 129 125 122 118 114 111 109 106 103 100 95 90 89 104 86 85 86 84 87 87 87 84 81 78
158 161 156 160 157 151 151 151 156 151 146 146 147 146 145 143 145 141 136 133 128 126 124 121 119 115 113 109 104 100 94 81 80 85 88 86 81 81 82 87 85 82 80
160 163 160 163 164 158 155 157 158 157 154 151 150 150 148 145 145 145 141 138 134 133 128 125 124 120 118 114 108 103 99 83 92 90 92 89 81 81 73 75 79 79 77
164 169 169 172 173 167 160 159 162 159 159 157 154 149 147 147 149 151 147 143 139 136 131 127 125 125 123 118 111 105 97 57 83 88 90 88 87 85 78 71 74 73 72
173 176 179 182 180 176 171 163 160 159 158 157 152 144 141 148 150 147 151 147 143 139 136 131 127 125 123 117 114 111 112 178 94 93 91 88 86 86 82 71 67 70 69
191 195 194 193 188 182 179 167 166 164 158 155 152 141 149 159 157 152 139 136 139 139 138 134 131 126 126 124 118 123 162 157 103 85 82 85 91 90 82 71 58 56 66
205 208 202 201 196 189 180 172 178 176 171 178 172 165 170 164 154 147 129 130 133 132 136 133 134 143 163 152 141 164 171 148 117 107 85 86 102 96 83 71 64 59 63
208 207 208 207 201 196 183 179 179 180 179 184 177 174 172 163 152 154 153 148 153 157 162 151 166 176 178 161 170 176 166 153 149 123 97 97 111 105 93 78 64 61 53
218 215 213 210 206 204 192 187 185 184 182 183 179 177 178 173 172 165 169 167 170 173 175 179 181 177 178 174 181 178 177 182 182 152 92 94 101 104 104 97 69 58 55
224 221 217 212 210 206 197 192 191 189 188 186 187 187 185 182 179 172 174 175 180 179 183 184 186 182 185 183 186 192 195 190 194 186 126 96 82 82 146 96 59 43 39
226 227 221 213 212 211 205 197 194 192 190 190 192 194 192 188 184 180 179 182 185 188 190 193 193 190 194 194 196 199 207 205 206 201 187 141 117 96 293 249 335 337 336
233 230 227 219 210 213 210 203 199 194 191 194 196 198 196 192 187 185 184 187 188 188 192 198 195 201 198 197 203 206 209 214 216 214 212 211 176 152 204 289 291 302 323
241 230 227 227 214 215 210 203 200 198 197 197 194 198 197 194 191 190 189 192 188 189 195 198 199 202 204 209 208 207 211 213 224 222 217 214 212 204 179 203 300 300 304
238 235 228 228 222 217 210 202 201 200 201 200 195 198 197 194 193 194 195 192 188 193 198 201 204 205 208 216 217 216 221 222 220 222 221 216 215 224 220 163 189 293 302
239 236 232 229 228 217 205 197 196 201 204 203 201 202 199 195 194 195 196 195 191 197 200 203 205 208 210 212 219 228 234 231 224 224 225 216 215 223 230 220 212 205 256
240 234 231 231 229 212 202 194 195 200 201 203 204 203 205 200 197 197 197 195 196 203 206 206 203 203 206 199 211 225 227 225 225 222 220 219 214 220 223 225 229 234 222
241 235 231 231 232 218 210 203 200 200 204 205 203 206 208 206 201 200 199 198 200 202 204 206 204 205 202 202 215 223 219 209 208 219 221 219 217 212 221 228 230 234 246
242 239 233 230 233 224 212 203 195 193 195 200 202 207 211 211 204 204 203 201 202 203 205 207 208 209 206 205 216 230 235 224 205 200 216 217 215 217 222 227 230 234 243
247 245 241 233 230 222 211 202 198 201 204 206 201 204 208 212 208 207 206 204 203 206 208 209 211 212 208 208 210 233 262 279 238 215 204 214 223 232 231 227 229 233 242
254 245 239 234 228 219 212 205 205 209 209 204 200 202 206 208 208 208 207 204 204 208 209 209 209 211 212 213 212 210 229 246 248 241 233 221 228 231 237 237 236 236 239
260 251 241 233 229 217 210 206 209 210 207 203 203 201 202 202 206 208 207 207 207 208 210 210 210 212 213 216 217 215 217 221 218 229 242 240 240 235 246 245 236 235 240